Location: Niverville
(49.6028°N, 97.0419°W)
Time: 20:48:55
(UTC-05:00)

Amateur Radio Satellites - All Passes

Search period start: 31 August 2016 20:18
Search period end: 01 September 2016 20:18
Location: Niverville, 49.6028°N, 97.0419°W

Satellite Date Start Highest point End Downlink Frequencies (MHz)
Time Altitude Azimuth
CUBEBUG 2 31 Aug 20:24:40 20:28:51 35° 67° (ENE) 20:32:55 437.445
GONETS M04 31 Aug 20:28:11 20:30:25 11° 38° (NE) 20:32:38
DOVE 4 31 Aug 20:29:53 20:34:24 28° 268° (W) 20:38:58 437.250
CINEMA 3 31 Aug 20:36:39 20:41:37 64° 259° (W) 20:46:29 145.822/145.860
HO-68 31 Aug 20:39:50 20:47:02 72° 255° (WSW) 20:54:15 435.675
GOMX 1 31 Aug 20:50:04 20:51:35 11° 279° (W) 20:53:07 467.674
DELFI C3 31 Aug 20:54:52 20:56:57 14° 59° (ENE) 20:59:01 145.870
PCSat 31 Aug 20:58:57 21:04:18 58° 241° (WSW) 21:09:35 145.827
STRAND 1 31 Aug 21:03:52 21:09:01 84° 104° (ESE) 21:14:08 437.568
SEEDS 31 Aug 21:10:02 21:14:04 48° 261° (W) 21:18:08 437.485
Oscar 11 31 Aug 21:15:01 21:19:08 48° 70° (ENE) 21:23:17 145.826/435.025
AIST 1 31 Aug 21:15:39 21:19:48 40° 267° (W) 21:23:53
Cosmos 2504 31 Aug 21:18:33 21:22:06 14° 286° (WNW) 21:25:37 435.465 / 435.565
AAUSAT CUBESAT 2 31 Aug 21:27:47 21:31:49 55° 260° (W) 21:35:54 437.432
FUNcube-1 31 Aug 21:28:37 21:32:55 61° 73° (ENE) 21:37:10 145.935
AIST 2 31 Aug 21:29:37 21:33:04 25° 243° (WSW) 21:36:32 435.215
M-CUBED/EXP-1 PRIME 31 Aug 21:34:16 21:36:22 13° 48° (NE) 21:38:28 437.505
COMPASS 1 31 Aug 21:40:56 21:44:41 33° 264° (W) 21:48:27 437.405
CANX-2 31 Aug 21:42:52 21:45:33 16° 271° (W) 21:48:13 2200.000
CUTE 1.7 + AOD 2 31 Aug 21:48:00 21:50:41 16° 270° (W) 21:53:24 437.475
UWE-3 31 Aug 21:48:42 21:53:07 55° 260° (W) 21:57:27 435.000/436.395/437.385
ZACube-1 31 Aug 21:52:42 21:57:06 74° 257° (WSW) 22:01:24 437.345
Cosmos 2491 31 Aug 21:54:10 21:58:51 15° 315° (NW) 22:03:35 435.465 / 435.565
HUMSAT D 31 Aug 21:59:09 22:02:47 31° 67° (ENE) 22:06:25 437.325/437.525
PRISM 31 Aug 21:59:26 22:03:24 39° 98° (E) 22:07:19 437.425
CUBEBUG 2 31 Aug 22:01:25 22:05:30 30° 265° (W) 22:09:29 437.445
Cosmos 2499 31 Aug 22:13:37 22:19:16 25° 61° (ENE) 22:24:55 435.465 / 435.565
ESTCUBE 1 31 Aug 22:20:20 22:22:27 13° 55° (NE) 22:24:34 437.505/2401.250
GONETS M04 31 Aug 22:22:18 22:30:32 40° 66° (ENE) 22:38:42
DELFI C3 31 Aug 22:27:21 22:31:17 71° 259° (W) 22:35:15 145.870
HO-68 31 Aug 22:32:04 22:36:02 15° 276° (W) 22:40:01 435.675
UNISAT 6 31 Aug 22:38:00 22:40:06 13° 88° (E) 22:42:10 437.425
O/OREOS (USA 219) 31 Aug 22:38:22 22:42:42 38° 54° (NE) 22:47:01 437.305
CUSAT 1 31 Aug 22:44:11 22:45:59 13° 80° (E) 22:47:59 437.405
STRAND 1 31 Aug 22:44:13 22:47:35 18° 304° (NW) 22:50:56 437.568
CUBEBUG 1 31 Aug 22:45:23 22:47:53 15° 57° (ENE) 22:50:24 437.445
Oscar 11 31 Aug 22:52:18 22:55:32 20° 269° (W) 22:58:47 145.826/435.025
VELOX 1 31 Aug 22:55:26 22:58:07 16° 57° (ENE) 23:00:49 145.980
AUBIESAT-1 31 Aug 22:55:53 23:00:20 46° 63° (ENE) 23:04:40 437.475
DX 1 31 Aug 22:57:53 22:59:36 12° 54° (NE) 23:01:20 434.975-435.025
SO-50 31 Aug 23:00:05 23:04:08 27° 116° (ESE) 23:08:10 436.795
M-CUBED/EXP-1 PRIME 31 Aug 23:05:26 23:10:07 67° 66° (ENE) 23:14:42 437.505
FUNcube-1 31 Aug 23:06:46 23:09:33 16° 270° (W) 23:12:19 145.935
ANTELSAT 31 Aug 23:13:33 23:17:18 29° 95° (E) 23:21:00 437.575/2403.000
UKube-1 31 Aug 23:27:55 23:30:48 18° 59° (ENE) 23:33:41 .
50 SAT 31 Aug 23:32:54 23:35:54 25° 66° (ENE) 23:38:56 437.505
HUMSAT D 31 Aug 23:34:48 23:38:24 29° 265° (W) 23:42:01 437.325/437.525
PRISM 31 Aug 23:35:06 23:38:32 25° 297° (WNW) 23:41:56 437.425
TIGRISAT 31 Aug 23:42:51 23:47:03 53° 100° (E) 23:51:11 435.000
AISAT 31 Aug 23:43:02 23:47:13 41° 68° (ENE) 23:51:26 437.250
QB50P1 31 Aug 23:50:13 23:51:36 11° 87° (E) 23:52:58 145.935-145.965
ESTCUBE 1 31 Aug 23:54:04 23:58:32 84° 78° (ENE) 00:03:06 437.505/2401.250
POPSAT HIP 1 31 Aug 23:59:55 00:02:13 14° 89° (E) 00:04:30 437.405
JAS-2 01 Sep 00:02:21 00:06:45 17° 85° (E) 00:11:20 435.910
Cosmos 2499 01 Sep 00:06:08 00:13:11 76° 264° (W) 00:20:20 435.465 / 435.565
UNISAT 6 01 Sep 00:13:05 00:17:23 73° 286° (WNW) 00:21:37 437.425
SPROUT 01 Sep 00:14:51 00:18:54 41° 69° (ENE) 00:22:58 437.525
O/OREOS (USA 219) 01 Sep 00:17:59 00:22:02 31° 254° (WSW) 00:26:03 437.305
TISAT 1 01 Sep 00:18:55 00:21:02 14° 57° (ENE) 00:23:08 437.305
GONETS M04 01 Sep 00:19:09 00:27:46 58° 269° (W) 00:36:21
CUBEBUG 1 01 Sep 00:19:09 00:23:35 82° 258° (WSW) 00:28:04 437.445
DUCHIFAT 1 01 Sep 00:21:15 00:24:26 21° 92° (E) 00:27:35 145.980
RS-15 01 Sep 00:23:46 00:33:18 31° 103° (ESE) 00:43:11 29.354- 29.394
CUSAT 1 01 Sep 00:23:46 00:27:08 51° 288° (WNW) 00:31:33 437.405
DANDE 01 Sep 00:24:12 00:26:49 40° 95° (E) 00:29:57 436.750
VELOX 1 01 Sep 00:29:34 00:34:01 78° 257° (WSW) 00:38:32 145.980
QB50P2 01 Sep 00:30:30 00:34:15 30° 95° (E) 00:37:58 145.880/145.840
DX 1 01 Sep 00:30:41 00:35:03 78° 73° (ENE) 00:39:28 434.975-435.025
AUBIESAT-1 01 Sep 00:31:01 00:34:54 26° 260° (W) 00:38:45 437.475
POLYITAN 1 01 Sep 00:33:00 00:36:44 30° 95° (E) 00:40:27 437.675
NANOSAT C BR1 01 Sep 00:37:03 00:40:50 31° 96° (E) 00:44:34 145.865
SO-50 01 Sep 00:39:35 00:44:22 57° 315° (NW) 00:49:06 436.795
M-CUBED/EXP-1 PRIME 01 Sep 00:41:40 00:44:58 19° 264° (W) 00:48:16 437.505
ANTELSAT 01 Sep 00:50:12 00:54:03 33° 294° (WNW) 00:57:52 437.575/2403.000
BUGSAT 1 01 Sep 00:56:44 00:59:54 21° 92° (E) 01:03:02 437.445
UKube-1 01 Sep 01:02:06 01:06:24 65° 258° (WSW) 01:10:44 .
50 SAT 01 Sep 01:06:20 01:09:25 27° 264° (W) 01:12:33 437.505
AISAT 01 Sep 01:20:07 01:23:50 26° 266° (W) 01:27:36 437.250
TIGRISAT 01 Sep 01:20:19 01:23:25 20° 299° (WNW) 01:26:29 435.000
QB50P1 01 Sep 01:23:44 01:27:59 84° 287° (WNW) 01:32:11 145.935-145.965
ESTCUBE 1 01 Sep 01:34:01 01:36:00 13° 273° (W) 01:37:58 437.505/2401.250
POPSAT HIP 1 01 Sep 01:34:16 01:38:29 68° 286° (WNW) 01:42:39 437.405
PHONESAT 2.4 01 Sep 01:35:27 01:36:29 11° 166° (SSE) 01:37:31 2401.200-2431.200
ITUPSAT 1 01 Sep 01:36:07 01:39:26 19° 58° (ENE) 01:42:45 437.325
Oscar 19 01 Sep 01:37:41 01:40:24 14° 86° (E) 01:43:04 437.125/150
JAS-2 01 Sep 01:45:47 01:52:42 75° 104° (ESE) 02:00:19 435.910
SPROUT 01 Sep 01:51:31 01:55:00 24° 267° (W) 01:58:31 437.525
TISAT 1 01 Sep 01:51:49 01:56:04 86° 254° (WSW) 02:00:22 437.305
UNISAT 6 01 Sep 01:52:19 01:53:19 11° 306° (NW) 01:54:18 437.425
DUCHIFAT 1 01 Sep 01:56:20 02:00:21 45° 291° (WNW) 02:04:20 145.980
CUBEBUG 1 01 Sep 01:59:56 02:00:36 10° 275° (W) 02:01:17 437.445
Cosmos 2499 01 Sep 02:01:26 02:05:01 15° 285° (WNW) 02:08:37 435.465 / 435.565
SWISSCUBE 01 Sep 02:05:15 02:09:33 35° 65° (ENE) 02:13:52 437.505
QB50P2 01 Sep 02:06:18 02:10:04 31° 294° (WNW) 02:13:47 145.880/145.840
POLYITAN 1 01 Sep 02:08:48 02:12:32 31° 294° (WNW) 02:16:15 437.675
DANDE 01 Sep 02:09:22 02:10:10 11° 304° (WNW) 02:10:59 436.750
DX 1 01 Sep 02:09:42 02:11:49 13° 272° (W) 02:13:57 434.975-435.025
NANOSAT C BR1 01 Sep 02:12:50 02:16:33 30° 294° (WNW) 02:20:13 145.865
GONETS M04 01 Sep 02:18:59 02:22:33 13° 292° (WNW) 02:26:07
BEESAT 01 Sep 02:21:34 02:26:04 44° 67° (ENE) 02:30:36 436.000
SO-50 01 Sep 02:22:24 02:25:49 19° 337° (NNW) 02:29:12 436.795
BUGSAT 1 01 Sep 02:31:34 02:35:29 42° 291° (WNW) 02:39:21 437.445
RS-15 01 Sep 02:32:33 02:44:17 90° 308° (NW) 02:56:39 29.354- 29.394
KKS-1 01 Sep 02:50:47 02:52:52 13° 55° (NE) 02:54:58 437.445
QB50P1 01 Sep 03:01:27 03:03:05 12° 304° (NW) 03:04:42 145.935-145.965
ITAMSAT 1 01 Sep 03:03:07 03:04:58 12° 85° (E) 03:06:48 435.822/435.867
PHONESAT 2.4 01 Sep 03:10:18 03:12:06 15° 182° (S) 03:13:53 2401.200-2431.200
ITUPSAT 1 01 Sep 03:12:03 03:16:47 70° 257° (WSW) 03:21:34 437.325
STARS 01 Sep 03:13:59 03:15:26 11° 54° (NE) 03:16:53 437.465
Oscar 19 01 Sep 03:15:13 03:20:29 88° 101° (ESE) 03:25:41 437.125/150
Gurwin Techsat 1B 01 Sep 03:25:14 03:30:28 55° 100° (E) 03:35:40 435.225
MOZHAYETS 4 01 Sep 03:29:30 03:33:33 32° 66° (ENE) 03:37:37
JAS-2 01 Sep 03:31:37 03:37:16 29° 302° (WNW) 03:43:23 435.910
TISAT 1 01 Sep 03:31:53 03:32:24 10° 274° (W) 03:32:55 437.305
AO-7 01 Sep 03:41:38 03:47:05 19° 86° (E) 03:52:29 29.400- 29.500
SWISSCUBE 01 Sep 03:43:05 03:47:21 33° 264° (W) 03:51:41 437.505
Cosmos 2491 01 Sep 03:59:02 04:06:20 27° 58° (ENE) 04:13:35 435.465 / 435.565
BEESAT 01 Sep 04:00:03 04:04:02 26° 266° (W) 04:08:03 436.000
SO-50 01 Sep 04:05:51 04:08:06 13° 2° (N) 04:10:21 436.795
KKS-1 01 Sep 04:24:15 04:28:44 83° 74° (ENE) 04:33:16 437.445
AO-85 01 Sep 04:38:44 04:43:07 27° 116° (ESE) 04:47:18 145.980
ITAMSAT 1 01 Sep 04:40:06 04:45:19 77° 104° (ESE) 04:50:30 435.822/435.867
STARS 01 Sep 04:46:35 04:51:00 73° 73° (ENE) 04:55:27 437.465
RS-15 01 Sep 04:47:04 04:58:25 46° 338° (NNW) 05:10:13 29.354- 29.394
Oscar 19 01 Sep 04:55:46 04:59:08 18° 305° (NW) 05:02:29 437.125/150
CUBESAT XI-V 01 Sep 05:02:36 05:06:52 38° 67° (ENE) 05:11:11 437.345
Gurwin Techsat 1B 01 Sep 05:05:43 05:10:08 27° 300° (WNW) 05:14:30 435.225
MOZHAYETS 4 01 Sep 05:06:34 05:10:42 33° 264° (W) 05:14:51
YUBILEINY 01 Sep 05:18:32 05:25:11 25° 77° (ENE) 05:31:51 435.215
AO-7 01 Sep 05:32:53 05:41:16 77° 108° (ESE) 05:49:34 29.400- 29.500
HORYU 2 01 Sep 05:34:05 05:36:53 16° 90° (E) 05:39:40 437.375
SO-50 01 Sep 05:46:38 05:50:18 22° 27° (NNE) 05:53:53 436.795
Cosmos 2491 01 Sep 05:55:29 06:04:23 85° 261° (W) 06:13:13 435.465 / 435.565
KKS-1 01 Sep 06:03:53 06:05:55 13° 272° (W) 06:07:58 437.445
NOAA 15 01 Sep 06:05:13 06:05:33 10° 83° (E) 06:05:53 137.62
Cosmos 2504 01 Sep 06:15:48 06:21:00 19° 77° (ENE) 06:26:01 435.465 / 435.565
BRITE-PL 01 Sep 06:16:43 06:21:28 26° 90° (E) 06:26:05 437.365/2234.400
AO-85 01 Sep 06:18:14 06:23:22 60° 314° (NW) 06:28:11 145.980
CUTE-I 01 Sep 06:19:18 06:20:46 11° 84° (E) 06:22:13 437.470
ITAMSAT 1 01 Sep 06:20:35 06:24:14 20° 304° (NW) 06:27:54 435.822/435.867
STARS 01 Sep 06:25:24 06:27:52 15° 271° (W) 06:30:22 437.465
CUBESAT XI-V 01 Sep 06:40:20 06:44:21 29° 266° (W) 06:48:25 437.345
STRAND 1 01 Sep 06:45:57 06:50:21 30° 62° (ENE) 06:54:45 437.568
RS-15 01 Sep 07:03:10 07:14:33 41° 12° (NNE) 07:26:04 29.354- 29.394
GOMX 1 01 Sep 07:05:12 07:09:58 31° 92° (E) 07:14:29 467.674
HORYU 2 01 Sep 07:09:30 07:13:53 64° 289° (WNW) 07:18:14 437.375
YUBILEINY 01 Sep 07:12:03 07:20:55 86° 280° (W) 07:29:48 435.215
AO-7 01 Sep 07:26:18 07:33:25 33° 310° (NW) 07:40:30 29.400- 29.500
SO-50 01 Sep 07:26:49 07:31:31 80° 51° (NE) 07:36:02 436.795
NOAA 18 01 Sep 07:39:20 07:44:35 45° 99° (E) 07:49:47 137.9125
NOAA 15 01 Sep 07:41:02 07:46:22 66° 103° (ESE) 07:51:38 137.62
Cubesat XI-IV 01 Sep 07:46:16 07:51:32 58° 101° (ESE) 07:56:47 437.490
Cosmos 2491 01 Sep 07:53:46 07:59:54 22° 285° (WNW) 08:06:03 435.465 / 435.565
BRITE-PL 01 Sep 07:54:40 08:00:17 58° 290° (WNW) 08:05:43 437.365/2234.400
CUTE-I 01 Sep 07:56:27 08:01:47 71° 103° (ESE) 08:07:05 437.470
AO-85 01 Sep 08:01:08 08:04:43 19° 335° (NNW) 08:08:09 145.980
LilacSat-2 01 Sep 08:02:56 08:06:44 81° 284° (WNW) 08:10:30 437.200
HO-68 01 Sep 08:03:58 08:08:41 18° 86° (E) 08:13:21 435.675
Cosmos 2504 01 Sep 08:05:04 08:13:18 83° 97° (E) 08:20:59 435.465 / 435.565
AIST 1 01 Sep 08:14:56 08:16:12 11° 80° (E) 08:17:29
DOVE 4 01 Sep 08:23:46 08:28:49 69° 101° (ESE) 08:33:31 437.250
STRAND 1 01 Sep 08:24:30 08:29:22 45° 261° (W) 08:34:16 437.568
CINEMA 3 01 Sep 08:27:54 08:31:27 23° 91° (E) 08:34:50 145.822/145.860
GOMX 1 01 Sep 08:43:04 08:48:11 45° 293° (WNW) 08:53:03 467.674
BEESAT 3 01 Sep 08:43:24 08:46:04 18° 114° (ESE) 08:48:46 437.485
ISS 01 Sep 08:44:43 08:47:53 45° 151° (SSE) 08:51:03 145.825
HORYU 2 01 Sep 08:49:11 08:49:35 10° 308° (NW) 08:49:58 437.375
SEEDS 01 Sep 08:49:53 08:53:05 20° 92° (E) 08:56:16 437.485
PRISM 01 Sep 08:52:42 08:56:41 50° 70° (ENE) 09:00:43 437.425
AAUSAT CUBESAT 2 01 Sep 09:06:23 09:09:11 17° 90° (E) 09:11:58 437.432
CUSAT 1 01 Sep 09:07:47 09:13:32 31° 65° (ENE) 09:20:08 437.405
SO-50 01 Sep 09:08:28 09:11:23 17° 249° (WSW) 09:14:14 436.795
TIGRISAT 01 Sep 09:11:56 09:13:46 12° 56° (NE) 09:15:35 435.000
YUBILEINY 01 Sep 09:12:19 09:19:10 24° 304° (NW) 09:26:03 435.215
DANDE 01 Sep 09:12:39 09:15:28 14° 59° (ENE) 09:18:36 436.750
RS-15 01 Sep 09:17:12 09:29:35 71° 43° (NE) 09:41:52 29.354- 29.394
COMPASS 1 01 Sep 09:19:03 09:22:42 28° 94° (E) 09:26:20 437.405
NOAA 18 01 Sep 09:20:16 09:25:08 33° 299° (WNW) 09:29:58 137.9125
AO-7 01 Sep 09:20:56 09:23:41 12° 335° (NNW) 09:26:25 29.400- 29.500
CANX-2 01 Sep 09:21:22 09:25:37 65° 102° (ESE) 09:29:51 2200.000
NOAA 15 01 Sep 09:21:35 09:25:43 23° 302° (WNW) 09:29:50 137.62
CUTE 1.7 + AOD 2 01 Sep 09:26:25 09:30:40 64° 102° (ESE) 09:34:53 437.475
Cubesat XI-IV 01 Sep 09:26:58 09:31:16 26° 301° (WNW) 09:35:34 437.490
UWE-3 01 Sep 09:34:31 09:37:42 21° 92° (E) 09:40:50 435.000/436.395/437.385
BRITE-PL 01 Sep 09:35:09 09:37:36 13° 310° (NW) 09:40:02 437.365/2234.400
CUTE-I 01 Sep 09:37:23 09:41:21 22° 303° (WNW) 09:45:18 437.470
ZACube-1 01 Sep 09:37:51 09:40:16 15° 89° (E) 09:42:39 437.345
UNISAT 6 01 Sep 09:40:20 09:43:50 22° 62° (ENE) 09:47:16 437.425
AO-85 01 Sep 09:45:00 09:46:58 12° 359° (N) 09:48:52 145.980
CUBEBUG 2 01 Sep 09:47:24 09:51:23 39° 97° (E) 09:55:17 437.445
AIST 1 01 Sep 09:48:41 09:53:04 88° 279° (W) 09:57:30
HO-68 01 Sep 09:50:16 09:57:30 83° 108° (ESE) 10:04:40 435.675
Cosmos 2504 01 Sep 10:01:08 10:07:35 25° 299° (WNW) 10:13:45 435.465 / 435.565
DOVE 4 01 Sep 10:02:22 10:05:57 20° 302° (WNW) 10:09:23 437.250
DELFI C3 01 Sep 10:02:28 10:03:49 11° 87° (E) 10:05:10 145.870
CINEMA 3 01 Sep 10:04:33 10:08:50 44° 291° (WNW) 10:12:55 145.822/145.860
BEESAT 2 01 Sep 10:11:52 10:15:48 66° 125° (SE) 10:19:47 435.950
ANTELSAT 01 Sep 10:16:05 10:20:23 45° 69° (ENE) 10:24:37 437.575/2403.000
BEESAT 3 01 Sep 10:19:27 10:23:21 61° 313° (NW) 10:27:17 437.485
ISS 01 Sep 10:21:02 10:24:19 65° 351° (N) 10:27:35 145.825
JAS-2 01 Sep 10:23:47 10:25:05 11° 43° (NE) 10:26:24 435.910
SEEDS 01 Sep 10:24:58 10:29:01 46° 290° (WNW) 10:33:04 437.485
PRISM 01 Sep 10:29:24 10:32:17 18° 268° (W) 10:35:12 437.425
Oscar 11 01 Sep 10:33:36 10:37:51 54° 100° (E) 10:42:05 145.826/435.025
AAUSAT CUBESAT 2 01 Sep 10:40:54 10:45:00 54° 288° (WNW) 10:49:04 437.432
TIGRISAT 01 Sep 10:45:14 10:49:46 80° 74° (ENE) 10:54:13 435.000
QB50P1 01 Sep 10:46:10 10:48:55 17° 59° (ENE) 10:51:40 145.935-145.965
FUNcube-1 01 Sep 10:48:18 10:52:27 71° 103° (ESE) 10:56:34 145.935
CUSAT 1 01 Sep 10:49:20 10:55:57 70° 262° (W) 11:03:44 437.405
DANDE 01 Sep 10:53:22 10:58:57 65° 76° (ENE) 11:06:10 436.750
COMPASS 1 01 Sep 10:54:31 10:58:17 33° 293° (WNW) 11:02:03 437.405
POPSAT HIP 1 01 Sep 10:56:14 10:59:22 20° 61° (ENE) 11:02:31 437.405
Cosmos 2499 01 Sep 10:58:16 11:02:48 17° 76° (ENE) 11:07:10 435.465 / 435.565
CANX-2 01 Sep 10:58:18 11:01:02 17° 300° (WNW) 11:03:45 2200.000
CUTE 1.7 + AOD 2 01 Sep 11:03:20 11:06:04 17° 300° (WNW) 11:08:49 437.475
UWE-3 01 Sep 11:10:25 11:14:24 43° 290° (WNW) 11:18:20 435.000/436.395/437.385
ZACube-1 01 Sep 11:12:52 11:16:59 61° 288° (WNW) 11:21:04 437.345
HUMSAT D 01 Sep 11:13:14 11:16:54 31° 96° (E) 11:20:33 437.325/437.525
UNISAT 6 01 Sep 11:15:51 11:20:16 50° 260° (W) 11:24:37 437.425
DUCHIFAT 1 01 Sep 11:17:00 11:20:37 28° 65° (ENE) 11:24:14 145.980
CUBEBUG 2 01 Sep 11:24:26 11:27:50 24° 297° (WNW) 11:31:11 437.445
AO-85 01 Sep 11:25:56 11:29:13 19° 25° (NNE) 11:32:18 145.980
QB50P2 01 Sep 11:26:57 11:30:57 40° 68° (ENE) 11:34:57 145.880/145.840
POLYITAN 1 01 Sep 11:29:26 11:33:27 40° 68° (ENE) 11:37:26 437.675
GONETS M04 01 Sep 11:29:27 11:37:15 38° 84° (E) 11:45:06
AIST 1 01 Sep 11:29:42 11:31:25 12° 300° (WNW) 11:33:08
RS-15 01 Sep 11:30:13 11:41:41 48° 249° (WSW) 11:53:00 29.354- 29.394
AIST 2 01 Sep 11:30:59 11:34:12 22° 115° (ESE) 11:37:27 435.215
NANOSAT C BR1 01 Sep 11:33:00 11:37:00 41° 69° (ENE) 11:41:00 145.865
DELFI C3 01 Sep 11:35:10 11:39:12 79° 285° (WNW) 11:43:13 145.870
HO-68 01 Sep 11:38:47 11:44:31 27° 308° (NW) 11:50:15 435.675
ESTCUBE 1 01 Sep 11:43:41 11:45:56 13° 87° (E) 11:48:11 437.505/2401.250
PCSat 01 Sep 11:44:28 11:49:43 53° 118° (ESE) 11:55:01 145.827
BUGSAT 1 01 Sep 11:50:15 11:53:51 28° 65° (ENE) 11:57:28 437.445
BEESAT 2 01 Sep 11:50:46 11:54:00 23° 326° (NNW) 11:57:15 435.950
ANTELSAT 01 Sep 11:53:39 11:57:17 23° 267° (W) 12:00:53 437.575/2403.000
ISS 01 Sep 11:57:42 12:00:59 68° 11° (N) 12:04:16 145.825
BEESAT 3 01 Sep 11:59:21 12:01:47 16° 334° (NNW) 12:04:15 437.485
JAS-2 01 Sep 12:03:30 12:08:39 49° 66° (ENE) 12:14:21 435.910
CUBEBUG 1 01 Sep 12:04:48 12:07:11 14° 88° (E) 12:09:33 437.445
AUBIESAT-1 01 Sep 12:06:30 12:08:38 14° 94° (E) 12:10:41 437.475
Oscar 11 01 Sep 12:10:31 12:13:40 20° 299° (WNW) 12:16:48 145.826/435.025
M-CUBED/EXP-1 PRIME 01 Sep 12:16:09 12:19:19 22° 97° (E) 12:22:17 437.505
VELOX 1 01 Sep 12:16:32 12:19:08 15° 89° (E) 12:21:43 145.980
QB50P1 01 Sep 12:20:00 12:24:14 66° 257° (WSW) 12:28:31 145.935-145.965
TIGRISAT 01 Sep 12:24:46 12:27:01 13° 272° (W) 12:29:13 435.000
FUNcube-1 01 Sep 12:25:51 12:28:12 15° 301° (WNW) 12:30:34 145.935
50 SAT 01 Sep 12:30:17 12:32:48 17° 92° (E) 12:35:17 437.505
POPSAT HIP 1 01 Sep 12:30:39 12:34:50 52° 260° (W) 12:39:02 437.405
CUSAT 1 01 Sep 12:33:14 12:37:08 16° 279° (W) 12:41:21 437.405
DANDE 01 Sep 12:36:45 12:41:32 27° 269° (W) 12:47:18 436.750
UKube-1 01 Sep 12:45:56 12:48:32 15° 90° (E) 12:51:08 .
Cosmos 2499 01 Sep 12:46:53 12:54:47 78° 97° (E) 13:02:08 435.465 / 435.565
HUMSAT D 01 Sep 12:48:56 12:52:29 29° 294° (WNW) 12:56:02 437.325/437.525
DUCHIFAT 1 01 Sep 12:52:17 12:56:12 35° 263° (W) 13:00:08 145.980
O/OREOS (USA 219) 01 Sep 12:56:27 12:59:28 18° 100° (E) 13:02:31 437.305
AO-7 01 Sep 12:57:45 13:01:47 15° 31° (NNE) 13:05:49 29.400- 29.500
Oscar 19 01 Sep 12:57:59 13:02:32 32° 63° (ENE) 13:07:08 437.125/150
QB50P2 01 Sep 13:03:24 13:06:54 24° 267° (W) 13:10:24 145.880/145.840
AISAT 01 Sep 13:04:55 13:09:13 44° 99° (E) 13:13:28 437.250
POLYITAN 1 01 Sep 13:05:54 13:09:23 24° 267° (W) 13:12:53 437.675
AO-85 01 Sep 13:06:04 13:10:29 71° 48° (NE) 13:14:32 145.980
AIST 2 01 Sep 13:08:22 13:12:24 53° 315° (NW) 13:16:29 435.215
NANOSAT C BR1 01 Sep 13:09:28 13:12:53 23° 267° (W) 13:16:20 145.865
Gurwin Techsat 1B 01 Sep 13:12:27 13:16:35 23° 58° (ENE) 13:20:43 435.225
DELFI C3 01 Sep 13:12:37 13:13:20 10° 304° (NW) 13:14:03 145.870
ESTCUBE 1 01 Sep 13:18:46 13:23:21 81° 284° (WNW) 13:27:54 437.505/2401.250
GONETS M04 01 Sep 13:25:03 13:33:41 60° 286° (WNW) 13:42:28
BUGSAT 1 01 Sep 13:25:13 13:29:08 35° 263° (W) 13:33:03 437.445
PCSat 01 Sep 13:28:24 13:33:22 35° 319° (NW) 13:38:22 145.827
SPROUT 01 Sep 13:32:01 13:36:08 43° 99° (E) 13:40:11 437.525
BEESAT 2 01 Sep 13:33:07 13:33:14 10° 350° (N) 13:33:22 435.950
TISAT 1 01 Sep 13:33:46 13:34:52 11° 87° (E) 13:35:57 437.305
ISS 01 Sep 13:34:16 13:37:22 40° 210° (SSW) 13:40:29 145.825
CUBEBUG 1 01 Sep 13:39:34 13:44:01 74° 286° (WNW) 13:48:24 437.445
AUBIESAT-1 01 Sep 13:39:37 13:43:35 60° 295° (WNW) 13:47:15 437.475
JAS-2 01 Sep 13:49:32 13:54:07 28° 269° (W) 13:59:06 435.910
RS-15 01 Sep 13:49:42 13:50:39 10° 273° (W) 13:51:36 29.354- 29.394
M-CUBED/EXP-1 PRIME 01 Sep 13:50:11 13:54:04 40° 298° (WNW) 13:57:36 437.505
DX 1 01 Sep 13:50:32 13:54:58 80° 105° (ESE) 13:59:20 434.975-435.025
VELOX 1 01 Sep 13:51:38 13:56:07 71° 287° (WNW) 14:00:32 145.980
50 SAT 01 Sep 14:03:06 14:06:34 42° 290° (WNW) 14:10:02 437.505
UKube-1 01 Sep 14:20:42 14:25:03 66° 287° (WNW) 14:29:19 .
ITAMSAT 1 01 Sep 14:24:05 14:28:32 30° 62° (ENE) 14:33:00 435.822/435.867
O/OREOS (USA 219) 01 Sep 14:33:55 14:38:23 63° 300° (WNW) 14:42:56 437.305
Oscar 19 01 Sep 14:36:50 14:41:45 42° 262° (W) 14:46:42 437.125/150
AISAT 01 Sep 14:41:49 14:45:29 25° 298° (WNW) 14:49:05 437.250
Cosmos 2499 01 Sep 14:42:27 14:48:42 26° 298° (WNW) 14:54:40 435.465 / 435.565
AO-7 01 Sep 14:44:47 14:52:26 42° 55° (NE) 15:00:04 29.400- 29.500
AO-85 01 Sep 14:47:41 14:50:19 16° 249° (WSW) 14:52:49 145.980
AIST 2 01 Sep 14:49:17 14:51:47 15° 337° (NNW) 14:54:20 435.215
Gurwin Techsat 1B 01 Sep 14:50:50 14:56:06 65° 258° (WSW) 15:01:25 435.225
ESTCUBE 1 01 Sep 14:57:23 14:59:26 13° 305° (NW) 15:01:28 437.505/2401.250
TISAT 1 01 Sep 15:06:55 15:11:09 88° 286° (WNW) 15:15:20 437.305
SPROUT 01 Sep 15:08:26 15:11:51 24° 297° (WNW) 15:15:15 437.525
ITUPSAT 1 01 Sep 15:08:38 15:12:21 22° 92° (E) 15:16:03 437.325
BEESAT 2 01 Sep 15:11:46 15:12:52 11° 14° (NNE) 15:13:59 435.950
PCSat 01 Sep 15:15:27 15:18:25 15° 344° (NNW) 15:21:25 145.827
CUBEBUG 1 01 Sep 15:18:00 15:19:30 12° 306° (NW) 15:21:00 437.445
BEESAT 3 01 Sep 15:18:22 15:20:30 14° 23° (NNE) 15:22:37 437.485
YUBILEINY 01 Sep 15:21:17 15:26:38 17° 48° (NE) 15:31:56 435.215
GONETS M04 01 Sep 15:27:34 15:32:50 17° 313° (NW) 15:38:08
DX 1 01 Sep 15:28:03 15:30:35 15° 303° (WNW) 15:33:06 434.975-435.025
VELOX 1 01 Sep 15:30:23 15:31:46 11° 307° (NW) 15:33:07 145.980
SWISSCUBE 01 Sep 15:38:08 15:42:43 44° 99° (E) 15:47:16 437.505
BEESAT 01 Sep 15:54:34 15:59:17 57° 101° (E) 16:03:58 436.000
UKube-1 01 Sep 15:59:41 16:00:15 10° 307° (NW) 16:00:49 .
ITAMSAT 1 01 Sep 16:02:51 16:07:49 46° 261° (W) 16:12:50 435.822/435.867
KKS-1 01 Sep 16:12:54 16:14:32 12° 87° (E) 16:16:08 437.445
O/OREOS (USA 219) 01 Sep 16:16:39 16:18:47 13° 322° (NW) 16:20:56 437.305
HORYU 2 01 Sep 16:35:49 16:39:33 27° 63° (ENE) 16:43:17 437.375
AO-7 01 Sep 16:36:45 16:44:58 59° 256° (WSW) 16:53:13 29.400- 29.500
GOMX 1 01 Sep 16:43:43 16:44:52 11° 49° (NE) 16:46:00 467.674
TISAT 1 01 Sep 16:44:23 16:46:08 12° 304° (NW) 16:47:53 437.305
ITUPSAT 1 01 Sep 16:45:50 16:50:30 53° 291° (WNW) 16:55:09 437.325
BEESAT 2 01 Sep 16:48:28 16:52:00 28° 37° (NE) 16:55:29 435.950
BEESAT 3 01 Sep 16:55:13 16:59:06 47° 45° (NE) 17:02:56 437.485
MOZHAYETS 4 01 Sep 16:56:31 17:00:52 41° 98° (E) 17:05:13
PCSat 01 Sep 17:01:40 17:04:14 13° 11° (N) 17:06:48 145.827
Cosmos 2491 01 Sep 17:07:55 17:14:27 24° 77° (ENE) 17:21:01 435.465 / 435.565
SWISSCUBE 01 Sep 17:16:18 17:20:20 28° 298° (WNW) 17:24:20 437.505
YUBILEINY 01 Sep 17:16:57 17:25:40 62° 74° (ENE) 17:34:16 435.215
LilacSat-2 01 Sep 17:17:44 17:18:48 11° 58° (ENE) 17:19:52 437.200
NOAA 15 01 Sep 17:27:03 17:31:26 27° 60° (ENE) 17:35:51 137.62
NOAA 18 01 Sep 17:31:06 17:35:25 24° 57° (ENE) 17:39:45 137.9125
BRITE-PL 01 Sep 17:31:13 17:36:03 41° 66° (ENE) 17:41:13 437.365/2234.400
BEESAT 01 Sep 17:33:03 17:36:43 23° 300° (WNW) 17:40:24 436.000
Cubesat XI-IV 01 Sep 17:34:07 17:38:26 26° 59° (ENE) 17:42:44 437.490
CUTE-I 01 Sep 17:43:49 17:48:23 30° 61° (ENE) 17:52:58 437.470
KKS-1 01 Sep 17:47:15 17:51:45 89° 317° (NW) 17:56:13 437.445
Cosmos 2504 01 Sep 17:52:34 17:59:14 37° 67° (ENE) 18:05:47 435.465 / 435.565
DOVE 4 01 Sep 17:56:50 18:00:36 20° 58° (ENE) 18:04:21 437.250
STARS 01 Sep 18:07:49 18:12:15 77° 103° (ESE) 18:16:37 437.465
AIST 2 01 Sep 18:09:27 18:12:12 17° 25° (NNE) 18:14:56 435.215
HORYU 2 01 Sep 18:11:46 18:15:57 40° 261° (W) 18:20:10 437.375
GOMX 1 01 Sep 18:16:34 18:21:42 50° 68° (ENE) 18:27:00 467.674
BEESAT 2 01 Sep 18:26:08 18:30:01 48° 237° (WSW) 18:33:52 435.950
CUBESAT XI-V 01 Sep 18:31:29 18:36:07 52° 100° (E) 18:40:43 437.345
BEESAT 3 01 Sep 18:33:19 18:36:32 24° 244° (WSW) 18:39:43 437.485
MOZHAYETS 4 01 Sep 18:34:01 18:37:53 27° 296° (WNW) 18:41:46
AO-7 01 Sep 18:36:08 18:39:36 13° 278° (W) 18:43:04 29.400- 29.500
HO-68 01 Sep 18:37:34 18:43:09 25° 51° (NE) 18:48:44 435.675
PCSat 01 Sep 18:44:53 18:49:32 28° 36° (NE) 18:54:11 145.827
CANX-2 01 Sep 18:45:51 18:47:05 11° 56° (NE) 18:48:20 2200.000
LilacSat-2 01 Sep 18:48:39 18:52:30 88° 268° (W) 18:56:19 437.200
CUTE 1.7 + AOD 2 01 Sep 18:50:54 18:52:03 11° 56° (NE) 18:53:13 437.475
Cosmos 2491 01 Sep 19:01:26 19:10:11 86° 279° (W) 19:19:03 435.465 / 435.565
NOAA 15 01 Sep 19:05:48 19:10:56 53° 259° (W) 19:16:08 137.62
BRITE-PL 01 Sep 19:09:57 19:14:36 34° 267° (W) 19:19:35 437.365/2234.400
NOAA 18 01 Sep 19:10:08 19:15:39 67° 257° (WSW) 19:21:10 137.9125
Cubesat XI-IV 01 Sep 19:12:53 19:18:09 59° 259° (WSW) 19:23:27 437.490
YUBILEINY 01 Sep 19:14:20 19:22:02 36° 277° (W) 19:29:41 435.215
CUTE-I 01 Sep 19:23:06 19:28:15 48° 261° (W) 19:33:25 437.470
KKS-1 01 Sep 19:25:24 19:27:40 14° 305° (NW) 19:29:55 437.445
DOVE 4 01 Sep 19:32:24 19:37:41 79° 257° (WSW) 19:43:02 437.250
CINEMA 3 01 Sep 19:32:44 19:37:18 38° 67° (ENE) 19:41:46 145.822/145.860
STARS 01 Sep 19:45:26 19:48:04 16° 303° (WNW) 19:50:40 437.465
SEEDS 01 Sep 19:45:43 19:49:08 25° 64° (ENE) 19:52:34 437.485
Cosmos 2504 01 Sep 19:45:57 19:52:49 49° 270° (W) 19:59:39 435.465 / 435.565
AIST 2 01 Sep 19:47:19 19:51:29 61° 46° (NE) 19:55:39 435.215
AIST 1 01 Sep 19:51:17 19:55:24 36° 72° (ENE) 19:59:27
GOMX 1 01 Sep 19:55:26 20:00:00 29° 268° (W) 20:04:44 467.674
Oscar 11 01 Sep 20:00:20 20:01:10 10° 54° (NE) 20:02:00 145.826/435.025
AAUSAT CUBESAT 2 01 Sep 20:00:46 20:03:51 21° 63° (ENE) 20:06:57 437.432
CUBESAT XI-V 01 Sep 20:09:28 20:13:11 24° 298° (WNW) 20:16:55 437.345
FUNcube-1 01 Sep 20:14:13 20:16:16 13° 58° (ENE) 20:18:19 145.935
